Weather History for Bentonville, AR

Change the Weather History Date:

Wednesday, December 5, 2012

  Actual Average Record
Temperature  
Mean Temperature 46 °F -  
Max Temperature 60 °F 50 °F 74 °F (1956)
Min Temperature 33 °F 29 °F 15 °F (1978)
Degree Days  
Heating Degree Days 18    
Moisture  
Dew Point 30 °F    
Average Humidity 55    
Maximum Humidity 87    
Minimum Humidity 29    
Precipitation  
Precipitation 0.00 in - - ()
Sea Level Pressure  
Sea Level Pressure 30.21 in    
Wind  
Wind Speed 5 mph (ESE)    
Max Wind Speed 16 mph    
Max Gust Speed 20 mph    
Visibility 10 miles    
Events      
Averages and records for this station are not official NWS values.
T = Trace of Precipitation, MM = Missing Value Source: NWS Daily Summary

Daily Weather History Graph

Daily Weather History Graph

Search for Another Location

Airport:

Trip Planner

Search our weather history database for the weather conditions in past years. The results will help you decide how hot, cold, wet, or windy it might be!

Date:

Astronomy

Dec. 05, 2012 Rise Set
Actual Time 7:13 AM CST 5:01 PM CST
Civil Twilight 6:45 AM CST 5:30 PM CST
Nautical Twilight 6:13 AM CST 6:02 PM CST
Astronomical Twilight 5:42 AM CST 6:33 PM CST
Moon 11:43 PM CST (12/5) 11:45 AM CST (12/5)
Length of Visible Light 10h 44m
Length of Day
9h 47m
Waning Gibbous, 59% of the Moon is Illuminated
Dec 5
Waning Gibbous
Dec 6
Last Quarter
Dec 13
New
Dec 19
First Quarter
Dec 28
Full

Hourly Weather History & Observations

Time (CST) Temp. Windchill Dew Point Humidity Pressure Visibility Wind Dir Wind Speed Gust Speed Precip Events Conditions
12:15 AM 41.0 °F 39.0 °F 32.0 °F 70% 30.30 in 10.0 mi ENE 3.5 mph - N/A   Clear
12:55 AM 39.2 °F 37.0 °F 33.8 °F 81% 30.29 in 10.0 mi North 3.5 mph - N/A   Clear
1:15 AM 35.6 °F 32.8 °F 28.4 °F 75% 30.30 in 10.0 mi North 3.5 mph - N/A   Clear
1:56 AM 39.2 °F - 30.2 °F 70% 30.29 in 10.0 mi Calm Calm - N/A   Clear
2:15 AM 37.4 °F - 33.8 °F 87% 30.30 in 10.0 mi Calm Calm - N/A   Clear
2:35 AM 35.6 °F - 30.2 °F 81% 30.29 in 10.0 mi Calm Calm - N/A   Clear
3:15 AM 33.8 °F 30.8 °F 30.2 °F 87% 30.30 in 10.0 mi North 3.5 mph - N/A   Clear
3:35 AM 35.6 °F 31.7 °F 30.2 °F 81% 30.30 in 10.0 mi NNE 4.6 mph - N/A   Clear
3:55 AM 35.6 °F 32.8 °F 30.2 °F 81% 30.30 in 10.0 mi NE 3.5 mph - N/A   Clear
4:16 AM 35.6 °F 30.7 °F 30.2 °F 81% 30.30 in 10.0 mi NE 5.8 mph - N/A   Clear
4:35 AM 37.4 °F 33.8 °F 30.2 °F 75% 30.29 in 10.0 mi NE 4.6 mph - N/A   Clear
4:55 AM 37.4 °F 32.8 °F 28.4 °F 70% 30.29 in 10.0 mi NE 5.8 mph - N/A   Clear
5:16 AM 37.4 °F 33.8 °F 28.4 °F 70% 30.29 in 10.0 mi ENE 4.6 mph - N/A   Clear
5:35 AM 37.4 °F 34.9 °F 30.2 °F 75% 30.30 in 10.0 mi North 3.5 mph - N/A   Clear
5:55 AM 35.6 °F - 30.2 °F 81% 30.30 in 10.0 mi Calm Calm - N/A   Clear
6:15 AM 35.6 °F 32.8 °F 30.2 °F 81% 30.30 in 10.0 mi NE 3.5 mph - N/A   Clear
6:55 AM 33.8 °F - 28.4 °F 81% 30.30 in 10.0 mi Calm Calm - N/A   Clear
7:36 AM 33.8 °F - 30.2 °F 87% 30.31 in 10.0 mi Calm Calm - N/A   Clear
8:55 AM 44.6 °F - 35.6 °F 71% 30.31 in 10.0 mi Calm Calm - N/A   Clear
9:15 AM 46.4 °F 45.2 °F 35.6 °F 66% 30.31 in 10.0 mi ESE 3.5 mph - N/A   Clear
9:35 AM 48.2 °F - 35.6 °F 62% 30.31 in 10.0 mi SE 4.6 mph - N/A   Clear
10:15 AM 53.6 °F - 33.8 °F 47% 30.31 in 10.0 mi SE 8.1 mph - N/A   Clear
10:35 AM 53.6 °F - 33.8 °F 47% 30.31 in 10.0 mi SE 9.2 mph - N/A   Clear
11:15 AM 55.4 °F - 30.2 °F 38% 30.29 in 10.0 mi SE 6.9 mph - N/A   Clear
11:35 AM 57.2 °F - 32.0 °F 38% 30.27 in 10.0 mi SE 10.4 mph 16.1 mph N/A   Clear
11:55 AM 57.2 °F - 30.2 °F 36% 30.26 in 10.0 mi ESE 10.4 mph - N/A   Clear
12:35 PM 59.0 °F - 28.4 °F 31% 30.23 in 10.0 mi ESE 16.1 mph 19.6 mph N/A   Clear
12:55 PM 59.0 °F - 28.4 °F 31% 30.23 in 10.0 mi ESE 13.8 mph - N/A   Clear
1:15 PM 59.0 °F - 28.4 °F 31% 30.22 in 10.0 mi ESE 9.2 mph - N/A   Clear
1:35 PM 60.8 °F - 28.4 °F 29% 30.20 in 10.0 mi SE 8.1 mph - N/A   Clear
1:36 PM 60.8 °F - 28.4 °F 29% 30.20 in 10.0 mi SE 9.2 mph - N/A   Clear
1:55 PM 60.8 °F - 28.4 °F 29% 30.20 in 10.0 mi ESE 8.1 mph - N/A   Clear
2:15 PM 60.8 °F - 28.4 °F 29% 30.18 in 10.0 mi SE 10.4 mph - N/A   Clear
2:55 PM 60.8 °F - 28.4 °F 29% 30.17 in 10.0 mi ESE 10.4 mph - N/A   Clear
3:15 PM 59.0 °F - 28.4 °F 31% 30.16 in 10.0 mi ESE 6.9 mph - N/A   Clear
3:35 PM 60.8 °F - 28.4 °F 29% 30.16 in 10.0 mi ESE 8.1 mph - N/A   Clear
4:15 PM 57.2 °F - 26.6 °F 31% 30.16 in 10.0 mi East 5.8 mph - N/A   Clear
4:55 PM 53.6 °F - 26.6 °F 35% 30.15 in 10.0 mi ESE 5.8 mph - N/A   Clear
5:16 PM 53.6 °F - 26.6 °F 35% 30.15 in 10.0 mi ESE 5.8 mph - N/A   Clear
5:35 PM 53.6 °F - 26.6 °F 35% 30.15 in 10.0 mi East 4.6 mph - N/A   Clear
5:55 PM 53.6 °F - 26.6 °F 35% 30.14 in 10.0 mi ESE 6.9 mph - N/A   Clear
6:16 PM 53.6 °F - 26.6 °F 35% 30.13 in 10.0 mi ESE 8.1 mph - N/A   Clear
6:35 PM 53.6 °F - 28.4 °F 38% 30.11 in 10.0 mi ESE 10.4 mph - N/A   Clear
6:55 PM 51.8 °F - 28.4 °F 41% 30.11 in 10.0 mi ESE 10.4 mph - N/A   Clear
7:35 PM 51.8 °F - 30.2 °F 44% 30.11 in 10.0 mi SE 10.4 mph - N/A   Clear
7:55 PM 50.0 °F - 30.2 °F 47% 30.11 in 10.0 mi SE 8.1 mph - N/A   Clear
8:15 PM 48.2 °F - 30.2 °F 50% 30.10 in 10.0 mi SE 9.2 mph - N/A   Clear
8:36 PM 48.2 °F - 30.2 °F 50% 30.10 in 10.0 mi SE 8.1 mph - N/A   Clear
8:55 PM 48.2 °F - 32.0 °F 54% 30.09 in 10.0 mi SE 8.1 mph - N/A   Clear
9:15 PM 48.2 °F - 32.0 °F 54% 30.08 in 10.0 mi SE 8.1 mph - N/A   Clear
9:35 PM 48.2 °F - 32.0 °F 54% 30.09 in 10.0 mi ESE 5.8 mph - N/A   Clear
9:56 PM 48.2 °F - 32.0 °F 54% 30.08 in 10.0 mi SE 5.8 mph - N/A   Clear
10:15 PM 46.4 °F 44.3 °F 33.8 °F 62% 30.09 in 10.0 mi ESE 4.6 mph - N/A   Clear
10:35 PM 44.6 °F 40.7 °F 32.0 °F 61% 30.08 in 10.0 mi ESE 6.9 mph - N/A   Clear
11:15 PM 44.6 °F 40.7 °F 32.0 °F 61% 30.07 in 10.0 mi SE 6.9 mph - N/A   Clear
11:35 PM 44.6 °F 41.4 °F 32.0 °F 61% 30.07 in 10.0 mi SE 5.8 mph - N/A   Clear
11:55 PM 44.6 °F 42.2 °F 30.2 °F 57% 30.07 in 10.0 mi SE 4.6 mph - N/A   Clear